Weather History for KELM - May, 2013

Change the Weather History Date:

Friday, May 31, 2013

  Actual Average Record
Temperature  
Mean Temperature 73 °F -  
Max Temperature 91 °F 74 °F 92 °F (1937)
Min Temperature 55 °F 51 °F 32 °F (1965)
Cooling Degree Days 8    
Growing Degree Days 23 (Base 50)    
Moisture  
Dew Point 59 °F    
Average Humidity 78    
Maximum Humidity 100    
Minimum Humidity 30    
Precipitation  
Precipitation 0.00 in - - ()
Sea Level Pressure  
Sea Level Pressure 30.08 in    
Wind  
Wind Speed 1 mph (SW)    
Max Wind Speed 12 mph    
Max Gust Speed -    
Visibility 5 miles    
Events Fog    
Averages and records for this station are not official NWS values.
T = Trace of Precipitation, MM = Missing Value Source: NWS Daily Summary

Daily Weather History Graph

Daily Weather History Graph

Search for Another Location

Airport or City:

Trip Planner

Search our weather history database for the weather conditions in past years. The results will help you decide how hot, cold, wet, or windy it might be!

Date:

Astronomy

May. 31, 2013 Rise Set
Actual Time 5:34 AM EDT 8:36 PM EDT
Civil Twilight 5:00 AM EDT 9:10 PM EDT
Nautical Twilight 4:17 AM EDT 9:53 PM EDT
Astronomical Twilight 3:27 AM EDT 10:44 PM EDT
Moon 1:05 AM EDT (5/31) 12:52 PM EDT (5/31)
Length of Visible Light 16h 09m
Length of Day
15h 02m
Waning Gibbous, 51% of the Moon is Illuminated
May 31
Waning Gibbous
May 31
Last Quarter
Jun 8
New
Jun 16
First Quarter
Jun 23
Full

Hourly Weather History & Observations

Time (EDT) Temp. Heat Index Dew Point Humidity Pressure Visibility Wind Dir Wind Speed Gust Speed Precip Events Conditions
12:53 AM 63.0 °F - 60.1 °F 90% 30.11 in 9.0 mi Calm Calm - N/A   Clear
1:53 AM 64.0 °F - 60.1 °F 87% 30.10 in 9.0 mi Calm Calm - N/A   Clear
2:53 AM 60.1 °F - 57.9 °F 93% 30.10 in 3.0 mi Calm Calm - N/A   Clear
3:18 AM 60.8 °F - 57.2 °F 88% 30.12 in 0.8 mi Calm Calm - N/A   Clear
3:25 AM 60.8 °F - 57.2 °F 88% 30.12 in 2.5 mi Calm Calm - N/A   Clear
3:34 AM 60.8 °F - 57.2 °F 88% 30.12 in 4.0 mi Calm Calm - N/A   Clear
3:40 AM 59.0 °F - 57.2 °F 94% 30.12 in 1.5 mi Calm Calm - N/A   Clear
3:43 AM 59.0 °F - 57.2 °F 94% 30.12 in 0.5 mi Calm Calm - N/A Fog Fog
3:50 AM 59.0 °F - 57.2 °F 94% 30.12 in 0.2 mi Calm Calm - N/A Fog Fog
3:53 AM 59.0 °F - 57.9 °F 96% 30.10 in 0.2 mi Calm Calm - N/A Fog Fog
4:12 AM 57.2 °F - 55.4 °F 94% 30.12 in 1.2 mi Calm Calm - N/A   Mostly Cloudy
4:20 AM 57.2 °F - 55.4 °F 94% 30.12 in 2.0 mi Calm Calm - N/A   Partly Cloudy
4:35 AM 57.2 °F - 55.4 °F 94% 30.12 in 0.8 mi Calm Calm - N/A   Mist
4:44 AM 57.2 °F - 55.4 °F 94% 30.12 in 0.2 mi Calm Calm - N/A Fog Fog
4:53 AM 55.9 °F - 55.0 °F 97% 30.11 in 0.2 mi Calm Calm - N/A Fog Fog
5:04 AM 57.2 °F - 55.4 °F 94% 30.13 in 0.2 mi Calm Calm - N/A Fog Fog
5:09 AM 57.2 °F - 55.4 °F 94% 30.13 in 0.5 mi Calm Calm - N/A Fog Fog
5:16 AM 57.2 °F - 55.4 °F 94% 30.13 in 1.0 mi Calm Calm - N/A   Mist
5:21 AM 57.2 °F - 57.2 °F 100% 30.13 in 0.2 mi Calm Calm - N/A Fog Fog
5:48 AM 57.2 °F - 57.2 °F 100% 30.13 in 0.5 mi Calm Calm - N/A Fog Fog
5:53 AM 59.0 °F - 57.0 °F 93% 30.12 in 4.0 mi Calm Calm - N/A   Partly Cloudy
6:15 AM 57.2 °F - 55.4 °F 94% 30.14 in 1.8 mi Calm Calm - N/A   Clear
6:24 AM 57.2 °F - 55.4 °F 94% 30.14 in 1.5 mi Calm Calm - N/A   Partly Cloudy
6:39 AM 60.8 °F - 59.0 °F 94% 30.14 in 0.8 mi Calm Calm - N/A   Mist
6:45 AM 60.8 °F - 59.0 °F 94% 30.14 in 1.2 mi Calm Calm - N/A   Partly Cloudy
6:53 AM 61.0 °F - 59.0 °F 93% 30.13 in 3.0 mi Calm Calm - N/A   Clear
7:53 AM 66.0 °F - 62.1 °F 87% 30.13 in 6.0 mi Calm Calm - N/A   Clear
8:53 AM 71.1 °F - 63.0 °F 75% 30.11 in 9.0 mi Calm Calm - N/A   Clear
9:53 AM 77.0 °F - 64.0 °F 64% 30.09 in 10.0 mi Calm Calm - N/A   Clear
10:53 AM 82.0 °F 84.5 °F 66.9 °F 60% 30.08 in 10.0 mi Calm Calm - N/A   Clear
11:53 AM 87.1 °F 86.7 °F 60.1 °F 40% 30.06 in 10.0 mi West 9.2 mph - N/A   Clear
12:53 PM 89.1 °F 88.0 °F 57.9 °F 35% 30.04 in 10.0 mi WSW 11.5 mph - N/A   Clear
1:53 PM 89.1 °F 88.2 °F 59.0 °F 36% 30.02 in 10.0 mi WSW 8.1 mph - N/A   Partly Cloudy
2:53 PM 89.1 °F 88.8 °F 60.1 °F 38% 30.01 in 10.0 mi NW 6.9 mph - N/A   Partly Cloudy
3:53 PM 90.0 °F 88.8 °F 57.9 °F 34% 29.98 in 10.0 mi SW 10.4 mph - N/A   Clear
4:53 PM 91.0 °F 89.2 °F 55.9 °F 30% 29.96 in 10.0 mi WSW 6.9 mph - N/A   Partly Cloudy
5:53 PM 88.0 °F 87.6 °F 60.1 °F 39% 29.95 in 10.0 mi SSW 10.4 mph - N/A   Partly Cloudy
6:53 PM 87.1 °F 87.8 °F 63.0 °F 44% 29.95 in 10.0 mi SSW 10.4 mph - N/A   Clear
7:53 PM 84.0 °F 84.9 °F 63.0 °F 49% 29.95 in 10.0 mi SSW 6.9 mph - N/A   Clear
8:53 PM 75.9 °F - 64.0 °F 67% 29.96 in 10.0 mi Calm Calm - N/A   Partly Cloudy
9:53 PM 73.9 °F - 64.0 °F 71% 29.98 in 10.0 mi South 3.5 mph - N/A   Partly Cloudy
10:53 PM 70.0 °F - 63.0 °F 78% 29.97 in 10.0 mi Calm Calm - N/A   Clear
11:53 PM 64.9 °F - 61.0 °F 87% 29.96 in 8.0 mi Calm Calm - N/A   Clear